Tracking 28790 objects as of 19-Apr-2024
HD Live streaming from Space Station
objects crossing your sky now

SL-14 R/B

Track SL-14 R/B now!
10-day predictions


NORAD ID: 14373
Int'l Code: 1983-099B
Perigee: 608.4 km
Apogee: 633.8 km
Inclination: 82.5 °
Period: 97.0 minutes
Semi major axis: 6992 km
RCS: 4.441 m2 (large)
Launch date: September 28, 1983
Source: Commonwealth of Independent States (former USSR) (CIS)
Launch site: PLESETSK MISSILE AND SPACE COMPLEX (PKMTR)

Note: This is a ROCKET BODY
Your satellite tracking list
Your tracking list is empty




NASA's NSSDC Master Catalog

Two Line Element Set (TLE):
1 14373U 83099B   24109.35308302  .00001566  00000-0  18098-3 0  9994
2 14373  82.5389  69.8032 0018181 262.6447  97.2702 14.84869949170123
Source of the keplerian elements: AFSPC